[[{"header":{"parameterUnit":"m.s-1","parameterCategory":2,"la1":30.2991,"la2":30.254,"lo1":-89.0895,"lo2":-89.0444,"dx":0.0017,"dy":0.0017,"nx":28,"ny":28,"refTime":"2022-11-03T15:00:00:Z","depth":"0","parameterNumber":2,"parameterNumberName":"U-component_of_CURRENTS"},"data":[0,0,0,0,0,0,0,0,0,0,0,0,0,0,0,0,0,0,0,0,0,0,0,0,0,0,0,0,0,0,0,0,0,0,0,0,0,0,0,0,0,0,0,0,0,0,0,0,0,0,0,0,0,0,0,0,0,0,-0.2471,-0.2471,0,-0.2473,-0.2472,-0.2472,-0.2459,-0.246,-0.246,-0.246,-0.2335,-0.2331,-0.2328,0,0,0,0,0,0,0,0,0,0,0,0,0,-0.2287,-0.2291,-0.247,-0.2471,-0.2472,-0.2473,-0.2472,-0.2472,-0.2459,-0.246,-0.246,-0.246,-0.2336,-0.2332,-0.2327,0,0,0,0,0,0,0,0,0,0,0,0,0,-0.233,-0.2292,-0.247,-0.2471,-0.2471,-0.2473,-0.2472,-0.2471,-0.2459,-0.246,-0.246,-0.246,-0.2337,-0.2332,-0.2327,-0.2286,0,0,-0.231,-0.2308,0,0,0,0,0,0,0,0,-0.2328,-0.2336,-0.247,-0.2471,-0.2471,-0.2472,-0.2362,-0.2405,-0.2459,-0.2457,-0.246,-0.246,-0.2373,-0.2365,-0.2357,-0.228,-0.2275,-0.231,-0.2307,-0.2304,-0.2303,0,0,0,0,0,0,0,-0.2325,-0.2335,-0.2465,-0.2471,-0.2472,-0.2413,-0.2421,-0.2369,-0.2405,-0.2457,-0.2458,-0.2468,-0.2371,-0.2362,-0.2353,-0.2273,-0.231,-0.2305,-0.2302,-0.23,-0.2205,-0.2206,0,0,0,0,0,0,-0.2348,-0.2334,-0.2465,-0.2465,-0.2406,-0.2418,-0.2425,-0.2466,-0.2408,-0.2403,-0.2468,-0.2468,-0.2371,-0.236,-0.2349,-0.2336,-0.2304,-0.2299,-0.2296,-0.2204,-0.2205,-0.2206,0,0,0,0,0,0,-0.2344,-0.236,-0.2465,-0.2402,-0.2412,-0.2422,-0.2467,-0.2466,-0.2464,-0.242,-0.241,-0.2469,-0.2371,-0.2356,-0.2323,-0.233,-0.2297,-0.2292,-0.2203,-0.2205,-0.2206,-0.2286,0,0,0,0,0,0,-0.2339,-0.236,-0.2384,-0.2405,-0.2417,-0.2485,-0.2467,-0.2466,-0.2473,-0.2473,-0.2417,-0.2406,-0.237,-0.2332,-0.2318,-0.2322,-0.2288,-0.2203,-0.2204,-0.2205,-0.2282,-0.2289,-0.2295,0,0,0,0,0,-0.2333,-0.2367,-0.2386,-0.2401,-0.2456,-0.2487,-0.2487,-0.2488,-0.2473,-0.2483,-0.2447,-0.2408,-0.233,-0.2328,-0.2312,-0.2314,-0.2202,-0.2204,-0.2205,-0.2279,-0.2288,-0.2295,0,0,0,0,0,0,-0.2298,-0.2371,-0.2391,-0.2447,-0.2477,-0.2488,-0.2493,-0.2491,-0.247,-0.2461,-0.241,-0.2397,-0.2374,-0.2332,-0.2331,-0.2292,-0.2261,-0.226,-0.2323,-0.2331,-0.2337,-0.234,-0.2284,0,0,0,0,0,-0.2307,-0.2357,-0.2408,-0.2453,-0.247,-0.248,-0.2487,-0.2494,-0.2485,-0.2477,-0.2441,-0.2398,-0.2365,-0.2341,-0.2307,-0.2274,-0.2248,-0.2267,-0.2274,-0.228,-0.2272,-0.2254,-0.2258,-0.2211,-0.2211,-0.2211,0,0,-0.2307,-0.2353,-0.2381,-0.2449,-0.2465,-0.2493,-0.2484,-0.2507,-0.2517,-0.2462,-0.2449,-0.2418,-0.2365,-0.2344,-0.2329,-0.2309,-0.2284,-0.2282,-0.2287,-0.2276,-0.2256,-0.226,-0.2264,-0.2212,-0.2212,-0.2212,0,0,-0.2318,-0.2375,-0.241,-0.2446,-0.249,-0.2499,-0.2511,-0.253,-0.2527,-0.252,-0.2486,-0.2463,-0.2408,-0.2379,-0.2353,-0.2369,-0.2325,-0.236,-0.2385,-0.2368,-0.2371,-0.2374,-0.2367,-0.2369,-0.2357,-0.2357,-0.2357,0,-0.2306,-0.2378,-0.242,-0.2461,-0.249,-0.2506,-0.2538,-0.2538,-0.2541,-0.2539,-0.2528,-0.2474,-0.2423,-0.24,-0.2405,-0.2382,-0.2371,-0.2361,-0.2377,-0.2379,-0.2381,-0.2372,-0.2373,-0.2361,-0.2361,-0.236,-0.236,0,-0.234,-0.2402,-0.2424,-0.2491,-0.252,-0.2556,-0.258,-0.2588,-0.2582,-0.2585,-0.2576,-0.2527,-0.2493,-0.248,-0.2438,-0.2427,-0.2417,-0.2396,-0.2359,-0.239,-0.238,-0.2379,-0.2367,-0.2366,-0.2364,-0.2363,0,0,-0.2278,-0.2424,-0.2426,-0.2472,-0.2545,-0.2566,-0.2593,-0.262,-0.2623,-0.2628,-0.2631,-0.2585,-0.2569,-0.2537,-0.2496,-0.2473,-0.247,-0.2436,-0.2434,-0.2434,-0.2445,-0.2375,-0.2367,-0.2457,-0.2457,-0.2457,-0.2441,0,-0.2281,-0.2374,-0.2444,-0.2509,-0.2549,-0.2601,-0.2622,-0.2647,-0.2653,-0.2656,-0.2635,-0.2617,-0.2589,-0.2565,-0.2547,-0.2477,-0.2468,-0.2477,-0.241,-0.2407,-0.2344,-0.2363,-0.2133,-0.2093,-0.244,-0.244,-0.2439,0,-0.2255,-0.2332,-0.2407,-0.2526,-0.2547,-0.258,-0.2618,-0.2647,-0.2668,-0.2673,-0.268,-0.2665,-0.2632,-0.2602,-0.254,-0.2549,-0.2503,-0.2463,-0.2461,-0.236,-0.2334,-0.2113,-0.2078,-0.1998,-0.2437,-0.2438,-0.2438,0,-0.2145,-0.2288,-0.2349,-0.2393,-0.252,-0.2547,-0.2599,-0.2637,-0.265,-0.2677,-0.2683,-0.2678,-0.2647,-0.261,-0.2531,-0.2534,-0.2464,-0.2455,-0.2366,-0.2362,-0.2131,-0.2106,-0.2004,-0.2425,-0.2425,-0.2425,-0.2426,0,-0.2101,-0.2137,-0.2305,-0.2335,-0.238,-0.2491,-0.252,-0.2564,-0.2619,-0.2597,-0.2676,-0.2637,-0.2643,-0.2607,-0.255,-0.2448,-0.2483,-0.2367,-0.2347,-0.2155,-0.2133,-0.2023,-0.2031,-0.2425,-0.2425,-0.2425,-0.2425,0,-0.1944,-0.2069,-0.2133,-0.2288,-0.2325,-0.2345,-0.2471,-0.2472,-0.2563,-0.2535,-0.2541,-0.26,-0.2536,-0.255,-0.2472,-0.2447,-0.2285,-0.2331,-0.2116,-0.207,-0.1909,-0.193,-0.184,-0.1811,-0.223,-0.2228,-0.2226,0,-0.186,-0.1884,-0.2051,-0.2063,-0.2128,-0.22,-0.222,-0.2383,-0.2384,-0.2457,-0.2406,-0.2425,-0.2325,-0.2277,-0.2216,-0.2149,-0.2162,-0.1979,-0.1936,-0.1863,-0.1872,-0.191,-0.1897,-0.1671,-0.1665,-0.1661,-0.1657,0,-0.1663,-0.1731,-0.1783,-0.1848,-0.1888,-0.1956,-0.2018,-0.2028,-0.2153,-0.2152,-0.2088,-0.2038,-0.201,-0.1831,-0.1849,-0.1803,-0.186,-0.1877,-0.1829,-0.1449,-0.145,-0.1422,-0.1753,-0.1612,-0.1617,-0.162,-0.1622,-0.1624,-0.1456,-0.1455,-0.1531,-0.1576,-0.1625,-0.1647,-0.1641,-0.1692,-0.1678,-0.1629,-0.1699,-0.1573,-0.1506,-0.1454,-0.1442,-0.1343,-0.1508,-0.1286,-0.1328,-0.1385,-0.1311,-0.1568,-0.1394,-0.1397,-0.14,-0.1402,-0.1404,0,-0.1202,-0.1233,-0.1245,-0.1298,-0.1279,-0.1409,-0.1433,-0.1399,-0.1297,-0.1271,-0.1191,-0.103,-0.0869,-0.0897,-0.0804,-0.0775,-0.081,-0.0808,-0.0765,-0.0793,-0.099,-0.0916,-0.0593,-0.0594,-0.0594,-0.0594,-0.0594,-0.0594,-0.1063,-0.1006,-0.1052,-0.0943,-0.0975,-0.0933,-0.0926,-0.0886,-0.0867,-0.0705,-0.0618,-0.0611,-0.0585,-0.0471,-0.0381,-0.0391,-0.0438,-0.039,-0.0567,-0.0631,-0.0678,-0.0723,-0.0651,-0.0279,-0.0279,-0.0252,-0.0252,-0.0251]},{"header":{"parameterUnit":"m.s-1","parameterCategory":2,"la1":30.2991,"la2":30.254,"lo1":-89.0895,"lo2":-89.0444,"dx":0.0017,"dy":0.0017,"nx":28,"ny":28,"refTime":"2022-11-03T15:00:00:Z","depth":"0","parameterNumber":3,"parameterNumberName":"V-component_of_CURRENTS"},"data":[0,0,0,0,0,0,0,0,0,0,0,0,0,0,0,0,0,0,0,0,0,0,0,0,0,0,0,0,0,0,0,0,0,0,0,0,0,0,0,0,0,0,0,0,0,0,0,0,0,0,0,0,0,0,0,0,0,0,-0.0392,-0.0393,0,-0.0433,-0.0433,-0.0433,-0.0467,-0.0468,-0.0468,-0.0469,-0.0438,-0.0437,-0.0436,0,0,0,0,0,0,0,0,0,0,0,0,0,-0.0321,-0.0322,-0.0392,-0.0393,-0.0393,-0.0433,-0.0433,-0.0434,-0.0467,-0.0468,-0.0468,-0.0469,-0.0439,-0.0437,-0.0436,0,0,0,0,0,0,0,0,0,0,0,0,0,-0.0355,-0.0322,-0.0392,-0.0416,-0.0418,-0.0433,-0.0433,-0.0434,-0.0467,-0.0468,-0.0469,-0.0469,-0.0439,-0.0437,-0.0436,-0.0411,0,0,-0.043,-0.0429,0,0,0,0,0,0,0,0,-0.0353,-0.0357,-0.0411,-0.0414,-0.0417,-0.0447,-0.0397,-0.0423,-0.0467,-0.0448,-0.0469,-0.047,-0.0434,-0.0433,-0.0439,-0.0409,-0.0408,-0.043,-0.0429,-0.0428,-0.0427,0,0,0,0,0,0,0,-0.0351,-0.0356,-0.0407,-0.0412,-0.0415,-0.0416,-0.0422,-0.0402,-0.0435,-0.0449,-0.0452,-0.0458,-0.0435,-0.0441,-0.0438,-0.0408,-0.043,-0.0428,-0.0427,-0.0426,-0.0383,-0.0383,0,0,0,0,0,0,-0.0348,-0.0354,-0.0406,-0.0409,-0.0387,-0.0417,-0.0423,-0.0436,-0.0437,-0.0438,-0.0457,-0.0459,-0.0444,-0.044,-0.0437,-0.0419,-0.0428,-0.0426,-0.0425,-0.0383,-0.0383,-0.0383,0,0,0,0,0,0,-0.0346,-0.0353,-0.0404,-0.0382,-0.0389,-0.0418,-0.0431,-0.0436,-0.0442,-0.0444,-0.0444,-0.0458,-0.0444,-0.044,-0.0434,-0.0418,-0.0425,-0.0424,-0.0383,-0.0383,-0.0383,-0.0375,0,0,0,0,0,0,-0.0344,-0.0352,-0.0355,-0.0382,-0.039,-0.0407,-0.0431,-0.0436,-0.0445,-0.0448,-0.0444,-0.0442,-0.0444,-0.0437,-0.0432,-0.0415,-0.0422,-0.0383,-0.0383,-0.0383,-0.0375,-0.0375,-0.0374,0,0,0,0,0,-0.0342,-0.0342,-0.0355,-0.0361,-0.0396,-0.0407,-0.0411,-0.0433,-0.0444,-0.0441,-0.0453,-0.0442,-0.0433,-0.0436,-0.043,-0.0412,-0.0383,-0.0383,-0.0383,-0.0376,-0.0375,-0.0374,0,0,0,0,0,0,-0.0315,-0.0346,-0.0361,-0.0372,-0.0387,-0.0413,-0.0413,-0.0427,-0.0435,-0.0438,-0.0442,-0.0441,-0.0428,-0.0423,-0.0426,-0.0401,-0.0405,-0.0404,-0.0401,-0.04,-0.04,-0.0394,-0.0421,0,0,0,0,0,-0.031,-0.0321,-0.0347,-0.0357,-0.0361,-0.0385,-0.0391,-0.0406,-0.042,-0.0424,-0.0424,-0.0425,-0.0422,-0.0416,-0.041,-0.0392,-0.0381,-0.0377,-0.0377,-0.0376,-0.0369,-0.0341,-0.0337,-0.0383,-0.0383,-0.0383,0,0,-0.0309,-0.0323,-0.0333,-0.0351,-0.0365,-0.0372,-0.039,-0.0397,-0.0404,-0.0416,-0.0417,-0.0418,-0.0418,-0.0409,-0.0401,-0.0402,-0.0361,-0.0376,-0.0375,-0.0368,-0.034,-0.0336,-0.0332,-0.0382,-0.0382,-0.0383,0,0,-0.0303,-0.0316,-0.0322,-0.033,-0.0345,-0.0357,-0.0356,-0.0376,-0.0382,-0.0384,-0.0399,-0.0393,-0.0385,-0.0386,-0.0386,-0.0373,-0.0359,-0.037,-0.0358,-0.0332,-0.0327,-0.0323,-0.0316,-0.0311,-0.0369,-0.0369,-0.0369,0,-0.0301,-0.0315,-0.0323,-0.0326,-0.0336,-0.0348,-0.0355,-0.0359,-0.0376,-0.0379,-0.0381,-0.0379,-0.0373,-0.0368,-0.0371,-0.0368,-0.0361,-0.0361,-0.0329,-0.0325,-0.0321,-0.0315,-0.0309,-0.0369,-0.0369,-0.0369,-0.0369,0,-0.03,-0.0312,-0.0312,-0.0326,-0.0328,-0.0335,-0.0344,-0.0342,-0.0348,-0.0358,-0.035,-0.0348,-0.0349,-0.0343,-0.0353,-0.0327,-0.0334,-0.0332,-0.0329,-0.0316,-0.031,-0.0305,-0.0368,-0.0368,-0.0368,-0.0369,0,0,-0.0315,-0.0314,-0.0319,-0.0326,-0.0332,-0.0337,-0.0333,-0.034,-0.0343,-0.0338,-0.034,-0.0328,-0.0328,-0.0328,-0.033,-0.0306,-0.0275,-0.0308,-0.0306,-0.0297,-0.0229,-0.0219,-0.0213,-0.0266,-0.0265,-0.0264,-0.024,0,-0.0322,-0.033,-0.0323,-0.0334,-0.0345,-0.0341,-0.0338,-0.0341,-0.034,-0.0338,-0.0327,-0.0326,-0.0323,-0.0322,-0.0296,-0.0281,-0.0259,-0.0282,-0.0246,-0.0245,-0.0234,-0.0205,-0.02,-0.0177,-0.0235,-0.0235,-0.0234,0,-0.0342,-0.0341,-0.0355,-0.035,-0.0352,-0.0352,-0.0352,-0.0348,-0.0341,-0.0338,-0.0328,-0.0326,-0.03,-0.0294,-0.0245,-0.0262,-0.0243,-0.0226,-0.0224,-0.0211,-0.0225,-0.0197,-0.0165,-0.0142,-0.0226,-0.0227,-0.0227,0,-0.0377,-0.0371,-0.0383,-0.0386,-0.0377,-0.0373,-0.0362,-0.0355,-0.035,-0.034,-0.0333,-0.031,-0.0293,-0.0258,-0.0227,-0.0234,-0.0171,-0.0177,-0.0151,-0.0152,-0.0136,-0.0137,-0.0071,-0.0132,-0.0132,-0.0132,-0.0133,0,-0.0414,-0.0424,-0.0399,-0.0413,-0.0414,-0.0393,-0.0393,-0.0381,-0.0359,-0.0347,-0.0334,-0.0313,-0.0278,-0.0246,-0.0221,-0.0168,-0.0164,-0.0138,-0.0135,-0.0136,-0.0137,-0.0108,-0.0103,-0.0132,-0.0132,-0.0132,-0.0132,0,-0.0476,-0.0462,-0.0474,-0.0451,-0.0442,-0.0447,-0.0412,-0.0402,-0.0377,-0.0357,-0.0351,-0.0311,-0.0261,-0.0233,-0.0176,-0.0154,-0.0091,-0.0098,-0.0112,-0.011,-0.0061,-0.0056,0.0013,0.0038,-0.006,-0.0059,-0.0059,0,-0.0509,-0.0525,-0.0511,-0.0506,-0.0498,-0.0486,-0.0471,-0.0431,-0.0411,-0.0349,-0.0336,-0.0286,-0.0252,-0.0175,-0.0128,-0.0083,-0.0065,-0.0051,-0.0052,-0.0043,-0.0035,-0.0036,-0.002,-0.004,-0.0039,-0.0038,-0.0038,0,-0.0565,-0.0564,-0.0567,-0.0556,-0.0542,-0.0522,-0.0488,-0.0473,-0.0413,-0.0381,-0.0317,-0.0282,-0.0207,-0.0145,-0.009,-0.0062,-0.0027,-0.0039,-0.0015,0.0006,-0.0002,0.0017,-0.0089,-0.0034,-0.0034,-0.0035,-0.0035,-0.0035,-0.0596,-0.0612,-0.0602,-0.0592,-0.0571,-0.0535,-0.0511,-0.0464,-0.0421,-0.034,-0.0312,-0.0229,-0.016,-0.0076,-0.0048,0.0021,0.0015,0.0039,0.0047,0.0048,0.0072,-0.003,0.0022,0.0021,0.0021,0.0021,0.0021,0,-0.0609,-0.0618,-0.062,-0.0594,-0.0564,-0.0548,-0.0498,-0.0454,-0.039,-0.0322,-0.0262,-0.0134,-0.0077,-0.0007,0.0077,0.0106,0.0108,0.0118,0.012,0.0135,0.0059,0.006,0.0106,0.0106,0.0106,0.0106,0.0106,0.0106,-0.0611,-0.0617,-0.0619,-0.0575,-0.0553,-0.05,-0.0467,-0.0402,-0.0337,-0.0205,-0.0101,-0.0039,0.0108,0.0132,0.0189,0.0183,0.021,0.0196,0.0221,0.016,0.0153,0.0146,0.015,0.0214,0.0214,0.0294,0.0295,0.0296]}],[{"header":{"parameterUnit":"m.s-1","parameterCategory":2,"la1":30.2991,"la2":30.254,"lo1":-89.0895,"lo2":-89.0444,"dx":0.0017,"dy":0.0017,"nx":28,"ny":28,"refTime":"2022-11-03T15:00:00:Z","depth":"2","parameterNumber":2,"parameterNumberName":"U-component_of_CURRENTS"},"data":[0,0,0,0,0,0,0,0,0,0,0,0,0,0,0,0,0,0,0,0,0,0,0,0,0,0,0,0,0,0,0,0,0,0,0,0,0,0,0,0,0,0,0,0,0,0,0,0,0,0,0,0,0,0,0,0,0,0,-0.1516,-0.1513,0,-0.1319,-0.1317,-0.1316,-0.1289,-0.129,-0.1291,-0.1292,-0.1355,-0.1356,-0.1357,0,0,0,0,0,0,0,0,0,0,0,0,0,-0.1516,-0.152,-0.1516,-0.1512,-0.1509,-0.1319,-0.1317,-0.1316,-0.1289,-0.129,-0.1291,-0.1292,-0.1355,-0.1356,-0.1357,0,0,0,0,0,0,0,0,0,0,0,0,0,-0.1449,-0.1521,-0.1517,-0.1465,-0.1457,-0.1319,-0.1317,-0.1315,-0.1289,-0.129,-0.1291,-0.1293,-0.1354,-0.1356,-0.1357,-0.1341,0,0,-0.1361,-0.1362,0,0,0,0,0,0,0,0,-0.1454,-0.1451,-0.1476,-0.1468,-0.1459,-0.132,-0.1339,-0.1333,-0.1289,-0.1365,-0.1292,-0.1293,-0.1359,-0.136,-0.1333,-0.1344,-0.1346,-0.1362,-0.1362,-0.1363,-0.1363,0,0,0,0,0,0,0,-0.1459,-0.1457,-0.1449,-0.1472,-0.1461,-0.1329,-0.1325,-0.1336,-0.1371,-0.1358,-0.1353,-0.1313,-0.1359,-0.1331,-0.1335,-0.1347,-0.1361,-0.1363,-0.1364,-0.1364,-0.1386,-0.1385,0,0,0,0,0,0,-0.1478,-0.1464,-0.1455,-0.1442,-0.1446,-0.1329,-0.1325,-0.1373,-0.1365,-0.1359,-0.1312,-0.1312,-0.1328,-0.1333,-0.1337,-0.1396,-0.1363,-0.1364,-0.1365,-0.1386,-0.1386,-0.1385,0,0,0,0,0,0,-0.1481,-0.1483,-0.1463,-0.1433,-0.142,-0.1329,-0.1381,-0.1368,-0.1358,-0.1325,-0.1327,-0.1317,-0.1329,-0.1335,-0.1346,-0.1396,-0.1365,-0.1366,-0.1386,-0.1386,-0.1385,-0.1464,0,0,0,0,0,0,-0.1484,-0.1488,-0.1554,-0.1438,-0.1422,-0.1409,-0.1378,-0.1363,-0.1324,-0.1324,-0.133,-0.1335,-0.1331,-0.1343,-0.1347,-0.1397,-0.1367,-0.1387,-0.1386,-0.1386,-0.1462,-0.1466,-0.147,0,0,0,0,0,-0.1486,-0.1534,-0.1562,-0.1559,-0.1513,-0.1408,-0.1391,-0.1331,-0.1324,-0.1329,-0.1314,-0.1336,-0.1344,-0.1344,-0.1348,-0.14,-0.1387,-0.1386,-0.1386,-0.146,-0.1466,-0.147,0,0,0,0,0,0,-0.1553,-0.1532,-0.1559,-0.1604,-0.1536,-0.1401,-0.1391,-0.1343,-0.1328,-0.1354,-0.1327,-0.133,-0.1358,-0.1353,-0.1353,-0.1398,-0.1372,-0.1372,-0.1427,-0.1432,-0.1436,-0.1466,-0.1368,0,0,0,0,0,-0.1608,-0.1649,-0.1588,-0.1616,-0.1608,-0.1514,-0.1472,-0.1433,-0.1377,-0.1372,-0.1368,-0.1365,-0.1351,-0.1372,-0.1366,-0.1396,-0.1391,-0.1429,-0.1433,-0.1437,-0.146,-0.1449,-0.1456,-0.1383,-0.1383,-0.1383,0,0,-0.163,-0.1621,-0.1646,-0.1633,-0.1591,-0.1577,-0.1497,-0.1449,-0.1439,-0.1387,-0.1412,-0.1384,-0.1355,-0.1378,-0.1394,-0.1392,-0.1456,-0.1436,-0.1441,-0.1461,-0.145,-0.1457,-0.1464,-0.1383,-0.1383,-0.1383,0,0,-0.1632,-0.1713,-0.1738,-0.1713,-0.1662,-0.1622,-0.1619,-0.1536,-0.1525,-0.1518,-0.147,-0.1461,-0.1467,-0.1442,-0.1429,-0.1452,-0.1468,-0.1463,-0.1533,-0.1522,-0.1529,-0.1535,-0.1554,-0.1561,-0.148,-0.148,-0.148,0,-0.1656,-0.1711,-0.1712,-0.1717,-0.1701,-0.1657,-0.1658,-0.1635,-0.1561,-0.1558,-0.1556,-0.1509,-0.1497,-0.1479,-0.149,-0.147,-0.1474,-0.1522,-0.1532,-0.1537,-0.1542,-0.156,-0.1567,-0.1484,-0.1483,-0.1483,-0.1482,0,-0.1662,-0.1725,-0.1725,-0.1767,-0.1757,-0.174,-0.172,-0.1735,-0.1731,-0.1692,-0.1685,-0.1632,-0.1599,-0.1597,-0.1562,-0.1578,-0.1574,-0.153,-0.1529,-0.1555,-0.1571,-0.1577,-0.1489,-0.1488,-0.1487,-0.1486,0,0,-0.1639,-0.1723,-0.1723,-0.1757,-0.179,-0.1753,-0.181,-0.1804,-0.1823,-0.1802,-0.1791,-0.1764,-0.1726,-0.1704,-0.1645,-0.1652,-0.1692,-0.1627,-0.1625,-0.1667,-0.1702,-0.1576,-0.157,-0.1655,-0.1656,-0.1657,-0.1707,0,-0.1635,-0.1676,-0.172,-0.1755,-0.1784,-0.1816,-0.1846,-0.1854,-0.1879,-0.1878,-0.1829,-0.1816,-0.1765,-0.1754,-0.1742,-0.169,-0.1708,-0.1685,-0.1654,-0.1654,-0.1554,-0.1572,-0.1425,-0.1445,-0.1713,-0.1714,-0.1714,0,-0.1617,-0.1653,-0.1703,-0.1769,-0.1783,-0.1802,-0.1868,-0.1882,-0.1913,-0.1937,-0.1933,-0.1904,-0.1884,-0.1838,-0.1802,-0.1793,-0.1769,-0.1743,-0.1743,-0.1605,-0.1537,-0.1456,-0.1445,-0.1723,-0.1723,-0.1722,-0.1721,0,-0.1562,-0.1629,-0.1673,-0.1694,-0.1771,-0.1795,-0.1827,-0.1892,-0.1909,-0.1973,-0.2005,-0.198,-0.1939,-0.1925,-0.1862,-0.1855,-0.1825,-0.1795,-0.1666,-0.1659,-0.1516,-0.1492,-0.1796,-0.1796,-0.1796,-0.1796,-0.1796,0,-0.1534,-0.1551,-0.1646,-0.1661,-0.1693,-0.1754,-0.1801,-0.1853,-0.1908,-0.19,-0.1998,-0.1967,-0.1962,-0.1929,-0.1898,-0.1785,-0.1848,-0.1693,-0.1658,-0.1537,-0.1515,-0.1733,-0.1725,-0.1798,-0.1797,-0.1797,-0.1796,0,-0.1449,-0.1525,-0.156,-0.1647,-0.167,-0.168,-0.1764,-0.1782,-0.1885,-0.188,-0.1903,-0.1953,-0.1921,-0.192,-0.1877,-0.1793,-0.174,-0.1688,-0.156,-0.1506,-0.159,-0.1585,-0.1581,-0.1577,-0.1573,-0.157,-0.1568,0,-0.1403,-0.1422,-0.1522,-0.1528,-0.1561,-0.1605,-0.1624,-0.1743,-0.1754,-0.1821,-0.1771,-0.1808,-0.1728,-0.1669,-0.1605,-0.1563,-0.1635,-0.1398,-0.1337,-0.1599,-0.1566,-0.1567,-0.1567,-0.1204,-0.1199,-0.1195,-0.1192,0,-0.1283,-0.1331,-0.1354,-0.1396,-0.1418,-0.1463,-0.149,-0.1499,-0.158,-0.1602,-0.1534,-0.1496,-0.1454,-0.1313,-0.1303,-0.1258,-0.14,-0.1304,-0.1608,-0.1256,-0.1239,-0.1208,-0.1222,-0.1153,-0.1157,-0.116,-0.1162,-0.1163,-0.1153,-0.1148,-0.1187,-0.1209,-0.124,-0.1245,-0.1236,-0.1254,-0.1238,-0.1199,-0.122,-0.1129,-0.1151,-0.1019,-0.0977,-0.0993,-0.1097,-0.1056,-0.1072,-0.1091,-0.1013,-0.0987,-0.0843,-0.0845,-0.0847,-0.0848,-0.085,0,-0.098,-0.0987,-0.0987,-0.1008,-0.0983,-0.1076,-0.1077,-0.1044,-0.0956,-0.0934,-0.0863,-0.0735,-0.0647,-0.0719,-0.0652,-0.0642,-0.0675,-0.0633,-0.0673,-0.071,-0.0743,-0.065,-0.0383,-0.0381,-0.038,-0.0379,0,0,-0.0878,-0.0821,-0.0841,-0.0741,-0.0756,-0.0709,-0.0695,-0.0662,-0.0639,-0.054,-0.0493,-0.0529,-0.0599,-0.0454,-0.0459,-0.0397,-0.0547,-0.0373,-0.0741,-0.0819,-0.085,-0.0973,-0.0867,0,0,0,0,0]},{"header":{"parameterUnit":"m.s-1","parameterCategory":2,"la1":30.2991,"la2":30.254,"lo1":-89.0895,"lo2":-89.0444,"dx":0.0017,"dy":0.0017,"nx":28,"ny":28,"refTime":"2022-11-03T15:00:00:Z","depth":"2","parameterNumber":3,"parameterNumberName":"V-component_of_CURRENTS"},"data":[0,0,0,0,0,0,0,0,0,0,0,0,0,0,0,0,0,0,0,0,0,0,0,0,0,0,0,0,0,0,0,0,0,0,0,0,0,0,0,0,0,0,0,0,0,0,0,0,0,0,0,0,0,0,0,0,0,0,0.0074,0.0076,0,0.0171,0.0172,0.0172,0.0162,0.0162,0.0161,0.016,0.0167,0.0168,0.0169,0,0,0,0,0,0,0,0,0,0,0,0,0,-0.0011,-0.0011,0.0074,0.0076,0.0078,0.0171,0.0172,0.0172,0.0162,0.0162,0.0161,0.016,0.0167,0.0168,0.0169,0,0,0,0,0,0,0,0,0,0,0,0,0,0.0041,-0.0011,0.0074,0.0091,0.0095,0.0171,0.0172,0.0172,0.0163,0.0162,0.0161,0.016,0.0167,0.0168,0.0169,0.0197,0,0,0.0173,0.0173,0,0,0,0,0,0,0,0,0.0038,0.0043,0.0087,0.0091,0.0094,0.0162,0.0145,0.0179,0.0163,0.0127,0.016,0.0159,0.0164,0.0165,0.0174,0.0197,0.0197,0.0173,0.0174,0.0174,0.0174,0,0,0,0,0,0,0,0.0034,0.0039,0.0103,0.0089,0.0094,0.0133,0.0137,0.0151,0.0141,0.013,0.0132,0.0158,0.0164,0.0173,0.0174,0.0198,0.0173,0.0174,0.0175,0.0175,0.021,0.021,0,0,0,0,0,0,0.0036,0.0035,0.01,0.0107,0.0073,0.0135,0.0139,0.0134,0.0143,0.0147,0.0159,0.0157,0.0171,0.0173,0.0174,0.0186,0.0174,0.0175,0.0176,0.021,0.021,0.021,0,0,0,0,0,0,0.0033,0.004,0.0097,0.0083,0.0094,0.0138,0.0131,0.0136,0.0142,0.0167,0.0167,0.016,0.017,0.0172,0.0181,0.0186,0.0176,0.0177,0.0209,0.021,0.021,0.0222,0,0,0,0,0,0,0.003,0.0037,0.003,0.0082,0.0095,0.0141,0.0134,0.0139,0.0164,0.0163,0.0169,0.0169,0.017,0.0179,0.0182,0.0188,0.0178,0.0209,0.021,0.021,0.0222,0.0223,0.0224,0,0,0,0,0,0.0026,0.0035,0.0028,0.0037,0.0084,0.0143,0.0152,0.0175,0.0165,0.0173,0.0171,0.0168,0.0183,0.0181,0.0184,0.019,0.0209,0.021,0.021,0.0221,0.0223,0.0224,0,0,0,0,0,0,-0.0005,0.0037,0.0031,0.0049,0.0089,0.0145,0.0158,0.0176,0.0183,0.0165,0.0177,0.0177,0.0185,0.0187,0.0184,0.02,0.0194,0.0195,0.0201,0.0203,0.0204,0.0208,0.0179,0,0,0,0,0,-0.0015,-0.0001,0.0044,0.006,0.0069,0.0107,0.0133,0.0147,0.0171,0.0172,0.0181,0.0183,0.0193,0.0196,0.0203,0.0218,0.0222,0.0221,0.0222,0.0224,0.0229,0.0247,0.0251,0.0212,0.0212,0.0212,0,0,-0.0027,0.0008,0.0009,0.0055,0.0074,0.0092,0.0116,0.0148,0.0163,0.0171,0.0176,0.0188,0.0198,0.0209,0.0213,0.021,0.0235,0.0224,0.0225,0.023,0.0248,0.0252,0.0255,0.0212,0.0212,0.0212,0,0,-0.003,-0.0018,-0.0018,0.0017,0.0061,0.0087,0.0094,0.0137,0.0146,0.0166,0.0172,0.0193,0.0202,0.0222,0.0229,0.0244,0.0241,0.0238,0.025,0.0267,0.0271,0.0274,0.0277,0.028,0.0238,0.0239,0.0239,0,-0.005,-0.0043,-0.0003,0.0015,0.0047,0.0078,0.0089,0.0109,0.0154,0.0167,0.0159,0.0206,0.021,0.025,0.0247,0.0249,0.0249,0.0244,0.027,0.0273,0.0276,0.0278,0.0282,0.0239,0.0239,0.0239,0.0239,0,-0.0049,-0.0048,-0.0039,-0.0019,0.0024,0.0043,0.0085,0.0104,0.0116,0.0143,0.0182,0.0209,0.024,0.0246,0.0247,0.0281,0.027,0.027,0.0267,0.0281,0.0282,0.0286,0.024,0.024,0.024,0.024,0,0,-0.0095,-0.0056,-0.0056,-0.006,0.0007,0.0034,0.0066,0.0106,0.0116,0.0158,0.0199,0.0227,0.0252,0.0264,0.0288,0.0307,0.0323,0.0293,0.0293,0.0297,0.0348,0.0322,0.0323,0.0324,0.0325,0.0326,0.0337,0,-0.0123,-0.0113,-0.0063,-0.0059,-0.0063,0.0002,0.0028,0.0077,0.0116,0.0159,0.0215,0.0235,0.0257,0.0264,0.0302,0.0322,0.0334,0.0319,0.0332,0.0333,0.031,0.0327,0.0288,0.0293,0.034,0.0341,0.0341,0,-0.0148,-0.0136,-0.0138,-0.0103,-0.0098,-0.0078,-0.0017,0.0014,0.0092,0.0122,0.0194,0.0229,0.0291,0.0289,0.0355,0.0342,0.0341,0.0353,0.0354,0.033,0.0314,0.0289,0.0298,0.0347,0.0347,0.0346,0.0346,0,-0.021,-0.0188,-0.0195,-0.0178,-0.0132,-0.0115,-0.0084,-0.0007,0.0017,0.0097,0.0124,0.0217,0.0253,0.0293,0.0335,0.033,0.0398,0.0392,0.0372,0.0369,0.034,0.0334,0.0415,0.0415,0.0415,0.0415,0.0415,0,-0.0253,-0.0265,-0.0238,-0.0243,-0.0249,-0.0181,-0.0165,-0.0118,-0.0042,-0.0011,0.009,0.0137,0.0248,0.0311,0.034,0.038,0.04,0.0379,0.0376,0.0341,0.0335,0.0386,0.0382,0.0416,0.0416,0.0416,0.0416,0,-0.0326,-0.0309,-0.0324,-0.0294,-0.0284,-0.0287,-0.0228,-0.0207,-0.0143,-0.0083,-0.007,0.0069,0.0138,0.0247,0.0317,0.0368,0.0404,0.04,0.0349,0.0339,0.036,0.0357,0.0381,0.038,0.0379,0.0379,0.0378,0,-0.0365,-0.0385,-0.0371,-0.0371,-0.0361,-0.0351,-0.033,-0.0267,-0.0231,-0.0134,-0.0103,-0.0019,0.0047,0.0181,0.0265,0.0329,0.0361,0.0338,0.0323,0.0364,0.0359,0.0357,0.0354,0.0285,0.0284,0.0283,0.0282,0,-0.0435,-0.0432,-0.0436,-0.0435,-0.0426,-0.041,-0.0376,-0.0368,-0.0286,-0.0241,-0.0173,-0.0132,-0.0009,0.008,0.0187,0.022,0.0333,0.0317,0.0387,0.0297,0.0275,0.0269,0.027,0.0274,0.0275,0.0275,0.0276,0.0276,-0.0478,-0.0496,-0.0489,-0.0486,-0.0471,-0.0445,-0.0426,-0.0382,-0.0344,-0.0246,-0.0228,-0.0127,-0.0062,0.009,0.0137,0.0222,0.0224,0.0264,0.0267,0.0271,0.0255,0.0232,0.022,0.0221,0.0221,0.0221,0.0222,0,-0.0515,-0.0518,-0.0525,-0.0508,-0.0487,-0.0469,-0.0428,-0.0388,-0.0334,-0.0256,-0.0199,-0.0116,-0.0044,0.0048,0.0137,0.0169,0.0176,0.02,0.0203,0.0209,0.0216,0.0198,0.0148,0.0148,0.0148,0.0149,0,0,-0.0528,-0.0539,-0.0537,-0.051,-0.0494,-0.0454,-0.0427,-0.0364,-0.0292,-0.0205,-0.0121,-0.0063,-0.0006,0.0055,0.0079,0.0126,0.0168,0.0132,0.0181,0.0186,0.0192,0.0235,0.0212,0,0,0,0,0]}],[{"header":{"parameterUnit":"m.s-1","parameterCategory":2,"la1":30.2991,"la2":30.254,"lo1":-89.0895,"lo2":-89.0444,"dx":0.0017,"dy":0.0017,"nx":28,"ny":28,"refTime":"2022-11-03T15:00:00:Z","depth":"4","parameterNumber":2,"parameterNumberName":"U-component_of_CURRENTS"},"data":[0,0,0,0,0,0,0,0,0,0,0,0,0,0,0,0,0,0,0,0,0,0,0,0,0,0,0,0,0,0,0,0,0,0,0,0,0,0,0,0,0,0,0,0,0,0,0,0,0,0,0,0,0,0,0,0,0,0,-0.0264,-0.0265,0,-0.0318,-0.0318,-0.0319,-0.0327,-0.0327,-0.0327,-0.0327,-0.036,-0.0361,-0.0362,0,0,0,0,0,0,0,0,0,0,0,0,0,-0.032,-0.0317,-0.0264,-0.0265,-0.0266,-0.0318,-0.0318,-0.0319,-0.0328,-0.0327,-0.0327,-0.0327,-0.036,-0.0361,-0.0362,0,0,0,0,0,0,0,0,0,0,0,0,0,-0.0324,-0.0317,-0.0264,-0.0278,-0.0281,-0.0318,-0.0318,-0.0319,-0.0328,-0.0327,-0.0327,-0.0327,-0.0359,-0.0361,-0.0363,-0.0378,0,0,-0.0368,-0.0368,0,0,0,0,0,0,0,0,-0.0323,-0.0321,-0.0275,-0.0278,-0.028,-0.0318,-0.0351,-0.0339,-0.0328,-0.0306,-0.0327,-0.0327,-0.0347,-0.0349,-0.0356,-0.038,-0.0381,-0.0368,-0.0369,-0.0369,-0.037,0,0,0,0,0,0,0,-0.0323,-0.032,-0.0282,-0.0276,-0.0279,-0.0335,-0.0333,-0.0349,-0.0325,-0.0308,-0.031,-0.0321,-0.0347,-0.0354,-0.0357,-0.0382,-0.0368,-0.0369,-0.037,-0.0371,-0.0492,-0.0495,0,0,0,0,0,0,-0.0314,-0.0318,-0.028,-0.0284,-0.0305,-0.0334,-0.0332,-0.0304,-0.0325,-0.0329,-0.0321,-0.0321,-0.0352,-0.0355,-0.0358,-0.0422,-0.0369,-0.0371,-0.0372,-0.049,-0.0493,-0.0495,0,0,0,0,0,0,-0.0314,-0.0308,-0.0278,-0.0308,-0.0308,-0.0332,-0.0301,-0.0305,-0.0314,-0.0336,-0.0338,-0.0327,-0.0352,-0.0356,-0.0378,-0.0422,-0.0372,-0.0373,-0.0487,-0.0491,-0.0494,-0.0522,0,0,0,0,0,0,-0.0315,-0.0307,-0.0293,-0.0305,-0.0306,-0.03,-0.0302,-0.0307,-0.0323,-0.0323,-0.0341,-0.0344,-0.0352,-0.0376,-0.038,-0.0423,-0.0374,-0.0485,-0.0489,-0.0493,-0.0518,-0.0526,-0.0532,0,0,0,0,0,-0.0316,-0.0297,-0.029,-0.0287,-0.028,-0.0301,-0.0306,-0.0323,-0.0323,-0.0329,-0.0344,-0.0344,-0.0407,-0.0378,-0.0383,-0.0427,-0.0482,-0.0488,-0.0493,-0.0515,-0.0524,-0.0532,0,0,0,0,0,0,-0.0355,-0.0297,-0.029,-0.0265,-0.0282,-0.0303,-0.0312,-0.0324,-0.0341,-0.034,-0.0354,-0.0359,-0.0402,-0.0411,-0.0378,-0.048,-0.0453,-0.0459,-0.0468,-0.0477,-0.0484,-0.0437,-0.0376,0,0,0,0,0,-0.0345,-0.0287,-0.0287,-0.0274,-0.0272,-0.0291,-0.0305,-0.0316,-0.0333,-0.0339,-0.0356,-0.0387,-0.0428,-0.0445,-0.0473,-0.0513,-0.0496,-0.0554,-0.0561,-0.0567,-0.0534,-0.0556,-0.056,-0.0512,-0.0512,-0.0512,0,0,-0.0372,-0.0325,-0.0306,-0.0275,-0.0282,-0.0291,-0.0297,-0.0312,-0.0332,-0.0341,-0.0368,-0.0404,-0.0444,-0.0496,-0.0519,-0.0506,-0.0576,-0.0573,-0.0578,-0.0541,-0.0561,-0.0565,-0.0569,-0.0516,-0.0515,-0.0514,0,0,-0.0402,-0.0337,-0.0312,-0.0289,-0.0283,-0.0299,-0.0302,-0.0321,-0.0333,-0.0364,-0.0394,-0.0431,-0.049,-0.0524,-0.0551,-0.061,-0.0611,-0.0659,-0.0655,-0.0679,-0.0681,-0.0683,-0.0674,-0.0675,-0.0666,-0.0666,-0.0666,0,-0.0444,-0.0395,-0.0327,-0.0292,-0.029,-0.0298,-0.0314,-0.0323,-0.0357,-0.037,-0.0373,-0.0465,-0.0493,-0.0562,-0.0596,-0.062,-0.0633,-0.0617,-0.0683,-0.0685,-0.0687,-0.0677,-0.0677,-0.0668,-0.0667,-0.0667,-0.0667,0,-0.0449,-0.0411,-0.0396,-0.0337,-0.0327,-0.0338,-0.0332,-0.0339,-0.0361,-0.0385,-0.044,-0.0479,-0.053,-0.0576,-0.0602,-0.0662,-0.0666,-0.0685,-0.0649,-0.0692,-0.068,-0.068,-0.067,-0.067,-0.0669,-0.0669,0,0,-0.0534,-0.043,-0.042,-0.0403,-0.0345,-0.0351,-0.0346,-0.0375,-0.0386,-0.0416,-0.0444,-0.0522,-0.0541,-0.0572,-0.0627,-0.0652,-0.0683,-0.0683,-0.0683,-0.065,-0.0726,-0.0711,-0.0709,-0.0734,-0.0734,-0.0734,-0.0714,0,-0.0581,-0.054,-0.0472,-0.0471,-0.0458,-0.0409,-0.0416,-0.0416,-0.0423,-0.0442,-0.0472,-0.0528,-0.0546,-0.0593,-0.0615,-0.0676,-0.0685,-0.0684,-0.0707,-0.0706,-0.0669,-0.0709,-0.0734,-0.0714,-0.0714,-0.0714,-0.0714,0,-0.0594,-0.0565,-0.0569,-0.052,-0.0515,-0.0524,-0.0505,-0.0511,-0.05,-0.0498,-0.051,-0.0533,-0.0577,-0.0587,-0.0642,-0.0655,-0.0678,-0.0704,-0.0705,-0.0669,-0.0691,-0.0664,-0.0714,-0.0714,-0.0714,-0.0714,-0.0714,0,-0.0657,-0.062,-0.0638,-0.0606,-0.0568,-0.0575,-0.058,-0.0548,-0.0541,-0.0539,-0.0527,-0.0565,-0.0591,-0.0623,-0.0653,-0.0669,-0.0694,-0.072,-0.0709,-0.0707,-0.0709,-0.0706,-0.0728,-0.0728,-0.0728,-0.0728,-0.0728,0,-0.0681,-0.0688,-0.0677,-0.0667,-0.0693,-0.0645,-0.0665,-0.0637,-0.0618,-0.061,-0.0583,-0.0577,-0.0607,-0.0616,-0.0646,-0.0666,-0.0681,-0.069,-0.0703,-0.0725,-0.0725,-0.0709,-0.0707,-0.0727,-0.0727,-0.0727,-0.0727,0,-0.0703,-0.07,-0.0705,-0.0706,-0.0709,-0.0718,-0.0694,-0.0689,-0.0673,-0.0647,-0.065,-0.0604,-0.0619,-0.062,-0.0664,-0.0656,-0.0684,-0.0682,-0.0674,-0.0689,-0.0678,-0.0679,-0.0667,-0.0667,-0.0666,-0.0666,-0.0665,0,-0.0708,-0.0719,-0.0721,-0.0715,-0.0718,-0.073,-0.0722,-0.0712,-0.0687,-0.0662,-0.0645,-0.0644,-0.0617,-0.063,-0.0651,-0.0668,-0.0674,-0.0658,-0.0684,-0.0659,-0.0673,-0.0674,-0.0675,-0.0665,-0.0664,-0.0664,-0.0664,0,-0.0713,-0.0722,-0.0717,-0.0707,-0.0709,-0.0694,-0.0692,-0.0685,-0.067,-0.0669,-0.0637,-0.063,-0.0623,-0.063,-0.0629,-0.0651,-0.0658,-0.0652,-0.0654,-0.0679,-0.0655,-0.067,-0.0672,-0.0662,-0.0663,-0.0663,-0.0663,0,-0.0703,-0.0696,-0.0687,-0.0665,-0.0674,-0.0649,-0.0655,-0.0641,-0.0634,-0.0623,-0.0627,-0.0619,-0.0628,-0.0621,-0.0634,-0.0638,-0.0649,-0.0638,-0.0641,-0.0643,-0.0646,-0.0613,-0.0608,0,0,0,0,0,-0.0665,-0.0637,-0.0632,-0.0599,-0.0615,-0.0603,-0.0615,-0.0621,-0.0639,-0.0615,-0.0622,-0.0621,-0.0622,-0.0617,-0.0621,-0.0629,-0.0647,-0.0631,-0.0635,-0.0652,-0.0654,-0.0661,0,0,0,0,0,0,-0.0623,-0.0616,-0.0608,-0.0559,-0.0528,-0.0524,-0.0531,-0.0539,-0.0529,-0.056,-0.0564,-0.0592,-0.0599,-0.0612,-0.0606,-0.061,-0.0606,-0.0645,-0.0644,-0.0651,-0.0653,-0.0654,-0.0663,0,0,0,0,0]},{"header":{"parameterUnit":"m.s-1","parameterCategory":2,"la1":30.2991,"la2":30.254,"lo1":-89.0895,"lo2":-89.0444,"dx":0.0017,"dy":0.0017,"nx":28,"ny":28,"refTime":"2022-11-03T15:00:00:Z","depth":"4","parameterNumber":3,"parameterNumberName":"V-component_of_CURRENTS"},"data":[0,0,0,0,0,0,0,0,0,0,0,0,0,0,0,0,0,0,0,0,0,0,0,0,0,0,0,0,0,0,0,0,0,0,0,0,0,0,0,0,0,0,0,0,0,0,0,0,0,0,0,0,0,0,0,0,0,0,-0.0264,-0.0264,0,-0.028,-0.0281,-0.0281,-0.0273,-0.0272,-0.0272,-0.0272,-0.026,-0.026,-0.026,0,0,0,0,0,0,0,0,0,0,0,0,0,-0.0164,-0.0166,-0.0264,-0.0264,-0.0264,-0.028,-0.0281,-0.0281,-0.0273,-0.0272,-0.0272,-0.0271,-0.026,-0.026,-0.026,0,0,0,0,0,0,0,0,0,0,0,0,0,-0.0197,-0.0167,-0.0264,-0.0262,-0.0262,-0.028,-0.0281,-0.0281,-0.0273,-0.0272,-0.0272,-0.0271,-0.026,-0.026,-0.026,-0.0276,0,0,-0.0261,-0.0261,0,0,0,0,0,0,0,0,-0.0196,-0.0201,-0.0262,-0.0262,-0.0262,-0.0273,-0.0241,-0.0278,-0.0273,-0.0269,-0.0272,-0.0271,-0.0262,-0.0262,-0.0268,-0.0275,-0.0275,-0.0261,-0.0261,-0.0261,-0.0261,0,0,0,0,0,0,0,-0.0193,-0.02,-0.0271,-0.0262,-0.0262,-0.0239,-0.0244,-0.0248,-0.0269,-0.027,-0.0269,-0.027,-0.0262,-0.0268,-0.0267,-0.0274,-0.0261,-0.0261,-0.0261,-0.0261,-0.0307,-0.0308,0,0,0,0,0,0,-0.0195,-0.0199,-0.027,-0.0271,-0.0226,-0.0242,-0.0247,-0.0271,-0.027,-0.0269,-0.0271,-0.027,-0.0268,-0.0267,-0.0267,-0.0288,-0.0261,-0.0261,-0.0261,-0.0306,-0.0307,-0.0309,0,0,0,0,0,0,-0.0193,-0.0202,-0.027,-0.0233,-0.024,-0.0244,-0.0271,-0.0272,-0.0277,-0.0271,-0.027,-0.0276,-0.0267,-0.0267,-0.0276,-0.0288,-0.0261,-0.0261,-0.0305,-0.0307,-0.0308,-0.0329,0,0,0,0,0,0,-0.0191,-0.0202,-0.022,-0.0234,-0.0242,-0.0285,-0.0272,-0.0272,-0.0279,-0.0277,-0.0275,-0.0273,-0.0267,-0.0276,-0.0277,-0.0287,-0.0262,-0.0303,-0.0306,-0.0308,-0.0327,-0.0331,-0.0335,0,0,0,0,0,-0.0187,-0.0214,-0.0222,-0.023,-0.0268,-0.0286,-0.0288,-0.0287,-0.028,-0.0289,-0.0287,-0.0273,-0.029,-0.0277,-0.0278,-0.0288,-0.0302,-0.0305,-0.0307,-0.0325,-0.033,-0.0335,0,0,0,0,0,0,-0.0172,-0.0216,-0.0225,-0.0262,-0.0275,-0.0284,-0.0292,-0.0291,-0.0298,-0.0295,-0.0286,-0.0285,-0.0302,-0.0295,-0.0282,-0.031,-0.0295,-0.0297,-0.0308,-0.0313,-0.0317,-0.0317,-0.0262,0,0,0,0,0,-0.0181,-0.0218,-0.0243,-0.027,-0.028,-0.0287,-0.0294,-0.0295,-0.0301,-0.0303,-0.0303,-0.0305,-0.0314,-0.0312,-0.0323,-0.0332,-0.0312,-0.0342,-0.0346,-0.0349,-0.0351,-0.0339,-0.0341,-0.0317,-0.0317,-0.0317,0,0,-0.0173,-0.0209,-0.0223,-0.0269,-0.028,-0.0302,-0.029,-0.0304,-0.0318,-0.0301,-0.0321,-0.0323,-0.0324,-0.034,-0.0346,-0.0331,-0.0342,-0.0352,-0.0355,-0.0355,-0.0342,-0.0344,-0.0346,-0.0319,-0.0318,-0.0318,0,0,-0.0176,-0.0218,-0.0244,-0.0276,-0.0305,-0.031,-0.0316,-0.0333,-0.0337,-0.0357,-0.0351,-0.0361,-0.0371,-0.0375,-0.0376,-0.041,-0.0371,-0.0409,-0.0418,-0.0407,-0.0408,-0.0409,-0.0368,-0.0365,-0.0402,-0.0402,-0.0402,0,-0.0169,-0.0212,-0.0247,-0.0292,-0.0315,-0.0316,-0.034,-0.0351,-0.0367,-0.0373,-0.0367,-0.0392,-0.0392,-0.0408,-0.0416,-0.0418,-0.0389,-0.0396,-0.041,-0.0411,-0.0411,-0.0369,-0.0365,-0.0403,-0.0403,-0.0403,-0.0403,0,-0.019,-0.0235,-0.0254,-0.0314,-0.0344,-0.0365,-0.0392,-0.0407,-0.0408,-0.0415,-0.0436,-0.0439,-0.0449,-0.0452,-0.044,-0.0448,-0.0418,-0.0421,-0.0392,-0.0415,-0.0369,-0.0365,-0.0405,-0.0405,-0.0404,-0.0404,0,0,-0.0169,-0.0248,-0.0261,-0.0291,-0.0362,-0.0381,-0.0418,-0.0439,-0.0454,-0.0468,-0.0483,-0.05,-0.0492,-0.0494,-0.0483,-0.0468,-0.0443,-0.0439,-0.0438,-0.0387,-0.0385,-0.0331,-0.0321,-0.0438,-0.0438,-0.0438,-0.0343,0,-0.0172,-0.0234,-0.0282,-0.0335,-0.0368,-0.0412,-0.044,-0.047,-0.0489,-0.0507,-0.0508,-0.0522,-0.051,-0.0508,-0.0495,-0.0466,-0.0436,-0.0466,-0.038,-0.0377,-0.0318,-0.0316,-0.0438,-0.034,-0.0339,-0.0338,-0.0337,0,-0.0197,-0.0232,-0.0281,-0.0347,-0.0364,-0.0393,-0.0447,-0.0474,-0.051,-0.0524,-0.0544,-0.0549,-0.0542,-0.0527,-0.0476,-0.0489,-0.0436,-0.0404,-0.04,-0.0341,-0.0316,-0.0319,-0.033,-0.033,-0.0331,-0.0332,-0.0332,0,-0.0178,-0.0244,-0.0271,-0.0308,-0.0375,-0.0397,-0.0416,-0.0472,-0.0493,-0.0531,-0.0547,-0.0553,-0.0543,-0.0503,-0.0442,-0.0454,-0.0366,-0.0379,-0.0276,-0.027,-0.0337,-0.0337,-0.0331,-0.0331,-0.0331,-0.0332,-0.0332,0,-0.02,-0.0232,-0.0257,-0.0293,-0.0316,-0.0372,-0.0408,-0.0439,-0.0476,-0.0495,-0.0539,-0.0546,-0.0535,-0.0494,-0.0438,-0.0334,-0.036,-0.027,-0.0246,-0.0346,-0.0349,-0.0332,-0.0333,-0.0328,-0.0329,-0.0329,-0.033,0,-0.0223,-0.0237,-0.028,-0.0316,-0.0324,-0.0348,-0.0396,-0.0419,-0.0452,-0.048,-0.0488,-0.0522,-0.0472,-0.0438,-0.0362,-0.0314,-0.0233,-0.0182,-0.0264,-0.0247,-0.0143,-0.0147,-0.0072,-0.0069,-0.0067,-0.0065,-0.0064,0,-0.0249,-0.0269,-0.0296,-0.0309,-0.0331,-0.0358,-0.0379,-0.0408,-0.0431,-0.0456,-0.0458,-0.0437,-0.0445,-0.0301,-0.0268,-0.0155,-0.0139,-0.009,-0.0148,-0.0134,-0.0119,-0.0126,-0.0133,-0.006,-0.0059,-0.0059,-0.0058,0,-0.0302,-0.0302,-0.0328,-0.0338,-0.0355,-0.0376,-0.0392,-0.0396,-0.0419,-0.0442,-0.0417,-0.038,-0.0319,-0.0266,-0.017,-0.0095,-0.0132,-0.0067,-0.0072,-0.0126,-0.0119,-0.0107,-0.0117,-0.0051,-0.0052,-0.0053,-0.0053,0,-0.0336,-0.0355,-0.0364,-0.0375,-0.0388,-0.0385,-0.0394,-0.0388,-0.0395,-0.0399,-0.0378,-0.0344,-0.0329,-0.0229,-0.0142,-0.0066,-0.006,-0.0045,-0.0051,-0.0059,-0.0095,-0.0087,0.002,0,0,0,0,0,-0.0368,-0.038,-0.0397,-0.0402,-0.0406,-0.0404,-0.0405,-0.0407,-0.0404,-0.0373,-0.037,-0.031,-0.0207,-0.0187,-0.0098,-0.0112,-0.0055,-0.0006,-0.0043,-0.0008,-0.0017,-0.0058,0,0,0,0,0,0,-0.0388,-0.041,-0.0405,-0.0412,-0.0412,-0.0415,-0.0409,-0.0402,-0.0381,-0.037,-0.0321,-0.0285,-0.0196,-0.0258,-0.01,-0.008,-0.0089,0.0037,0.0039,-0.0003,-0.0011,-0.0018,-0.0064,0,0,0,0,0]}]]